Meteo Giornale » Osservazioni meteo Italia » Pratica Di Mare

ore: 04:55 - Osservazioni Meteo Pratica Di Mare
Lat. 41° 39' N Lon. 12° 27' E Alt. 6 metri s.l.m.

sereno Europe/Rome

21 °C

Sereno

Temp. 24 Ore

20 °C

28 °C

Est

7.4 Km/h

Dew point 19 °C

Umidità 88 %

Visibilità  10 Km

Il sole sorge alle ore 06:53

Il sole tramonta alle ore 19:13

Data e Ora Cielo e Fenomeni T °C DP °C Um. % Pres. hPa Vis. km Vento km/h
Oggi h: 04:55 sereno Sereno 21 19 88 1016 10 E 7.4
Oggi h: 03:55 sereno Sereno 21 19 88 1016 10 E 7.4
Oggi h: 02:55 sereno Sereno 21 19 88 1016 10 E/NE 7.4
Oggi h: 01:55 sereno Sereno 21 20 94 1015 10 N 3.7
Oggi h: 00:55 sereno Sereno 21 20 94 1015 10 N 3.7
Ieri h: 23:55 sereno Sereno 21 20 94 1015 10 E 9.3
Ieri h: 22:55 sereno Sereno 22 20 88 1015 10 N 5.5
Ieri h: 21:55 sereno Sereno 21 20 94 1015 10 N/NE 7.4
Ieri h: 20:55 sereno Sereno 22 19 83 1015 10 N 3.7
Ieri h: 19:55 sereno Sereno 25 20 73 1014 10 N 5.5
Ieri h: 18:55 sereno Sereno 26 21 73 1014 10 NO 7.4
Ieri h: 16:55 sereno Sereno 27 19 61 1014 10 O 14.8
Ieri h: 15:55 sereno Sereno 27 20 65 1015 10 O 14.8
Ieri h: 14:55 sereno Sereno 28 20 61 1015 10 O/SO 13
Ieri h: 12:55 sereno Sereno 27 19 61 1015 10 O/SO 13
Ieri h: 11:55 sereno Sereno 28 18 54 1015 10 SO 13
Ieri h: 10:55 sereno Sereno 26 17 57 1015 10 N 5.5
Ieri h: 09:55 sereno Sereno 24 17 64 1015 10 N 11.1
Ieri h: 08:55 sereno Sereno 22 16 68 1014 10 N/NE 13
Ieri h: 07:55 sereno Sereno 20 16 77 1014 10 N/NE 16.7
Ieri h: 06:55 sereno Sereno 21 17 77 1013 10 N/NE 16.7
Ieri h: 05:55 sereno Sereno 21 16 73 1013 10 N/NE 14.8